Location: Newark
(39.0622°N, 106.5590°E)
Time: 02:04:28
(UTC+00:00)

Vanguard 2 Rocket - Pass Details

Date: 31 January 2020
Orbit: 553 x 3327 km, 32.9° (Epoch: 25 February)

Event Time Altitude Azimuth Distance (km) Brightness Sun altitude
Rises 22:49:31 0° 263° (W) 2,743 - -14.2°
Reaches altitude 10° 22:51:39 10° 253° (WSW) 1,922 - -13.8°
Exits shadow 22:52:29 15° 247° (WSW) 1,635 7.7 -13.6°
Maximum altitude 22:55:32 36° 186° (S) 1,118 7.4 -13.0°
Drops below altitude 10° 23:00:55 10° 121° (ESE) 2,692 10.6 -12.0°
Sets 23:04:27 0° 114° (ESE) 4,048 12.2 -11.3°
